FW0027 Weather Reports


time (UTC)temp
C
wind
direction
speed
KPH
gust
KPH
rain 1hr
cm
rain 24hr
cm
rain mn
cm
humidity
%
barometer
mb
20260505220857 28 117 6.4 11.3 0.00 0.00 0.00 79 1011.8
20260505214658 28 117 3.2 11.3 0.00 0.00 0.00 80 1011.7
20260505214512 27 117 3.2 11.3 0.00 0.00 0.00 80 1011.7
20260505213636 28 117 4.8 11.3 0.00 0.00 0.00 80 1011.6
20260505213106 27 117 3.2 12.9 0.00 0.00 0.00 80 1011.5
20260505212622 28 117 4.8 12.9 0.00 0.00 0.00 80 1011.4
20260505211626 27 117 8.0 14.5 0.00 0.00 0.00 81 1011.4
20260505211556 28 117 6.4 12.9 0.00 0.00 0.00 81 1011.4
20260505210617 28 117 6.4 12.9 0.00 0.00 0.00 81 1011.3
20260505210006 27 117 4.8 14.5 0.00 0.00 0.00 81 1011.2
20260505205641 28 117 6.4 11.3 0.00 0.00 0.00 81 1011.1
20260505204602 27 117 8.0 17.7 0.00 0.00 0.00 81 1011.2
20260505203524 28 116 8.0 16.1 0.00 0.00 0.00 82 1011.1
20260505203102 27 117 8.0 16.1 0.00 0.00 0.00 83 1011.0
20260505202454 28 116 9.7 16.1 0.00 0.00 0.00 82 1010.9
20260505201607 27 115 9.7 16.1 0.00 0.00 0.00 83 1011.0
20260505201422 28 115 8.0 14.5 0.00 0.00 0.00 83 1010.9
20260505200412 28 116 6.4 16.1 0.00 0.00 0.00 83 1011.0
20260505195420 27 112 8.0 16.1 0.00 0.00 0.00 84 1010.9
20260505194606 27 117 6.4 16.1 0.00 0.00 0.00 85 1010.8
20260505193318 27 121 6.4 12.9 0.00 0.00 0.00 86 1010.6
20260505193010 27 121 6.4 12.9 0.00 0.00 0.00 86 1010.6
20260505192249 27 121 6.4 12.9 0.00 0.00 0.00 86 1010.4
20260505191503 27 121 6.4 12.9 0.00 0.00 0.00 86 1010.5
20260505191305 27 121 8.0 17.7 0.00 0.00 0.00 86 1010.3
20260505190300 27 122 9.7 17.7 0.00 0.00 0.00 85 1010.2
20260505190002 27 119 12.9 19.3 0.00 0.00 0.00 85 1010.4
20260505185308 27 120 8.0 16.1 0.00 0.00 0.00 85 1010.3
20260505184610 27 115 8.0 17.7 0.00 0.00 0.00 84 1010.5
20260505184251 27 118 8.0 16.1 0.00 0.00 0.00 84 1010.5
20260505183237 27 117 8.0 16.1 0.00 0.00 0.00 84 1010.5
20260505183004 27 117 6.4 16.1 0.00 0.00 0.00 84 1010.6
20260505182207 27 132 8.0 17.7 0.00 0.00 0.00 85 1010.6
20260505181503 27 155 9.7 19.3 0.00 0.00 0.00 85 1010.7
20260505180040 27 133 11.3 19.3 0.00 0.00 0.00 85 1010.9
20260505175045 27 157 8.0 19.3 0.00 0.00 0.00 85 1010.9
20260505174049 28 109 9.7 20.9 0.00 0.00 0.00 85 1011.1
20260505173103 27 111 16.1 22.5 0.00 0.00 0.00 84 1011.4
20260505173055 28 121 12.9 20.9 0.00 0.00 0.00 84 1011.3
20260505172106 28 113 14.5 24.1 0.00 0.00 0.00 83 1011.5
20260505171602 27 107 14.5 25.7 0.00 0.00 0.00 83 1011.4
20260505171042 28 131 11.3 22.5 0.00 0.00 0.00 84 1011.4
20260505170005 27 131 9.7 20.9 0.00 0.00 0.00 85 1011.7
20260505164930 28 106 9.7 27.4 0.00 0.00 0.00 85 1011.5
20260505164602 28 130 8.0 22.5 0.00 0.00 0.00 85 1011.5
20260505163916 28 124 12.9 27.4 0.00 0.00 0.00 84 1011.6
20260505163003 28 114 12.9 29.0 0.00 0.00 0.00 82 1011.6
20260505161750 28 141 11.3 22.5 0.00 0.00 0.00 82 1011.7
20260505161503 28 152 11.3 22.5 0.00 0.00 0.00 82 1011.7
20260505160720 29 164 11.3 27.4 0.00 0.00 0.00 79 1011.7
20260505160104 28 101 11.3 24.1 0.00 0.00 0.00 75 1011.9
20260505152730 29 126 11.3 24.1 0.00 0.00 0.00 75 1012.1
20260505151503 28 122 14.5 25.7 0.00 0.00 0.00 75 1012.1
20260505150607 29 125 9.7 22.5 0.00 0.00 0.00 75 1012.1
20260505150117 29 113 14.5 24.1 0.00 0.00 0.00 75 1012.2
20260505140458 29 111 11.3 24.1 0.00 0.00 0.00 74 1012.3
20260505124608 29 121 12.9 22.5 0.00 0.00 0.00 70 1011.7
20260505124447 30 111 11.3 27.4 0.00 0.00 0.00 70 1011.7
20260505123457 30 144 11.3 27.4 0.00 0.00 0.00 69 1011.7
20260505123003 30 101 16.1 29.0 0.00 0.00 0.00 68 1011.9
20260505121504 30 112 16.1 24.1 0.00 0.00 0.00 68 1011.8
20260505121344 30 121 11.3 20.9 0.00 0.00 0.00 68 1011.6
20260505120353 30 133 9.7 17.7 0.00 0.00 0.00 70 1011.6
20260505115327 30 108 9.7 17.7 0.00 0.00 0.00 73 1011.5
20260505114503 30 111 8.0 17.7 0.00 0.00 0.00 73 1011.2
20260505114332 30 111 9.7 17.7 0.00 0.00 0.00 73 1011.1
20260505113316 30 124 9.7 17.7 0.00 0.00 0.00 73 1011.0
20260505113006 30 120 8.0 19.3 0.00 0.00 0.00 72 1010.9
20260505112330 30 103 8.0 14.5 0.00 0.00 0.00 72 1010.9
20260505111604 30 100 9.7 17.7 0.00 0.00 0.00 72 1010.9
20260505111332 30 101 8.0 17.7 0.00 0.00 0.00 72 1010.9
20260505102004 31 113 11.3 24.1 0.00 0.00 0.00 69 1010.6
20260505101503 31 102 12.9 25.7 0.00 0.00 0.00 69 1010.5
20260505100110 31 96 12.9 25.7 0.00 0.00 0.00 68 1010.4
20260505095827 31 101 14.5 27.4 0.00 0.00 0.00 67 1010.3
20260505094846 31 117 12.9 27.4 0.00 0.00 0.00 67 1010.2
20260505094503 31 97 12.9 29.0 0.00 0.00 0.00 67 1010.1
20260505093821 32 106 11.3 24.1 0.00 0.00 0.00 66 1010.0
20260505093102 31 88 11.3 22.5 0.00 0.00 0.00 66 1010.0
20260505092833 32 101 14.5 24.1 0.00 0.00 0.00 65 1009.9
20260505091850 32 116 11.3 24.1 0.00 0.00 0.00 65 1009.8
20260505091603 32 107 14.5 20.9 0.00 0.00 0.00 65 1009.9
20260505090839 32 124 14.5 24.1 0.00 0.00 0.00 64 1009.7
20260505090008 32 109 12.9 25.7 0.00 0.00 0.00 63 1009.8
20260505085857 32 125 11.3 20.9 0.00 0.00 0.00 63 1009.8
20260505084828 32 121 11.3 19.3 0.00 0.00 0.00 64 1009.7
20260505084602 32 120 11.3 20.9 0.00 0.00 0.00 64 1009.7
20260505083004 32 107 17.7 25.7 0.00 0.00 0.00 62 1009.7
20260505081558 32 107 12.9 29.0 0.00 0.00 0.00 61 1009.6
20260505081504 32 100 17.7 29.0 0.00 0.00 0.00 60 1009.7
20260505080540 33 94 14.5 29.0 0.00 0.00 0.00 59 1009.6
20260505074503 33 90 14.5 24.1 0.00 0.00 0.00 57 1009.4
20260505074358 34 109 12.9 22.5 0.00 0.00 0.00 56 1009.4
20260505073332 34 119 14.5 27.4 0.00 0.00 0.00 56 1009.4
20260505073003 34 110 16.1 30.6 0.00 0.00 0.00 56 1009.4
20260505072330 35 61 12.9 30.6 0.00 0.00 0.00 56 1009.3
20260505071502 34 55 8.0 32.2 0.00 0.00 0.00 55 1009.5
20260505071330 35 111 11.3 30.6 0.00 0.00 0.00 55 1009.4
20260505070347 35 65 9.7 30.6 0.00 0.00 0.00 54 1009.6
20260505065321 34 113 12.9 30.6 0.00 0.00 0.00 55 1009.6
20260505064502 34 60 9.7 32.2 0.00 0.00 0.00 55 1009.8
20260505064325 34 102 12.9 24.1 0.00 0.00 0.00 55 1009.7
20260505062251 34 58 12.9 30.6 0.00 0.00 0.00 58 1009.8
20260505061605 33 86 12.9 24.1 0.00 0.00 0.00 58 1009.9
20260505060117 33 103 11.3 33.8 0.00 0.00 0.00 59 1010.0
20260505060003 33 86 9.7 24.1 0.00 0.00 0.00 59 1010.1
20260505055121 33 105 14.5 33.8 0.00 0.00 0.00 60 1010.3
20260505054604 33 116 16.1 35.4 0.00 0.00 0.00 58 1010.5
20260505054055 34 88 12.9 29.0 0.00 0.00 0.00 57 1010.4
20260505053107 34 121 16.1 30.6 0.00 0.00 0.00 57 1010.5
20260505051602 33 148 17.7 30.6 0.00 0.00 0.00 59 1010.7
20260505050931 34 103 14.5 32.2 0.00 0.00 0.00 58 1010.6
20260505041655 34 106 16.1 30.6 0.00 0.00 0.00 56 1011.2
20260505041502 33 102 12.9 32.2 0.00 0.00 0.00 57 1011.2
20260505040625 34 142 16.1 32.2 0.00 0.00 0.00 57 1011.3
20260505040108 33 108 16.1 33.8 0.00 0.00 0.00 57 1011.4
20260505035558 34 117 16.1 30.6 0.00 0.00 0.00 55 1011.4
20260505034602 33 123 12.9 24.1 0.00 0.00 0.00 57 1011.4
20260505034507 33 162 14.5 22.5 0.00 0.00 0.00 57 1011.5
20260505033607 33 99 14.5 29.0 0.00 0.00 0.00 57 1011.6
20260505033103 33 111 12.9 30.6 0.00 0.00 0.00 58 1011.7
20260505032545 33 131 14.5 30.6 0.00 0.00 0.00 59 1011.7
20260505031603 33 105 17.7 32.2 0.00 0.00 0.00 59 1011.9
20260505031529 33 119 16.1 30.6 0.00 0.00 0.00 59 1011.8
20260505030457 33 129 14.5 29.0 0.00 0.00 0.00 59 1011.9
20260505030003 33 107 14.5 30.6 0.00 0.00 0.00 59 1012.0
20260505025501 33 122 12.9 27.4 0.00 0.00 0.00 59 1012.0
20260505024603 33 120 12.9 25.7 0.00 0.00 0.00 60 1012.1
20260505024437 33 78 11.3 30.6 0.00 0.00 0.00 62 1011.9
20260505023003 32 150 14.5 29.0 0.00 0.00 0.00 61 1012.1
20260505022234 32 151 12.9 24.1 0.00 0.00 0.00 62 1012.1
20260505021506 32 128 14.5 25.7 0.00 0.00 0.00 61 1012.3
20260505021236 33 109 12.9 24.1 0.00 0.00 0.00 60 1012.4
20260505020240 33 116 11.3 29.0 0.00 0.00 0.00 59 1012.4
20260505015259 32 86 12.9 29.0 0.00 0.00 0.00 59 1012.5
20260505014502 32 111 14.5 30.6 0.00 0.00 0.00 61 1012.6
20260505014304 32 92 11.3 27.4 0.00 0.00 0.00 62 1012.6
20260505013105 32 109 12.9 22.5 0.00 0.00 0.00 65 1012.7
20260505012204 32 105 8.0 16.1 0.00 0.00 0.00 65 1012.7
20260505011608 31 105 9.7 17.7 0.00 0.00 0.00 65 1012.7
20260505011200 32 101 8.0 16.1 0.00 0.00 0.00 65 1012.6
20260505010203 32 92 6.4 12.9 0.00 0.00 0.00 64 1012.5
20260505010003 31 92 8.0 14.5 0.00 0.00 0.00 64 1012.6
20260505004602 31 91 6.4 14.5 0.00 0.00 0.00 62 1012.7
20260505004104 31 92 6.4 17.7 0.00 0.00 0.00 63 1012.6
20260505003125 31 91 8.0 17.7 0.00 0.00 0.00 62 1012.7
20260505003003 31 101 8.0 16.1 0.00 0.00 0.00 62 1012.7
20260505002135 31 107 6.4 14.5 0.00 0.00 0.00 62 1012.7
20260505001501 31 103 8.0 16.1 0.00 0.00 0.00 63 1012.7
20260505001136 31 109 6.4 14.5 0.00 0.00 0.00 63 1012.7
20260505000201 31 108 6.4 14.5 0.00 0.00 0.00 64 1012.7
20260505000139 30 108 6.4 16.1 0.00 0.00 0.00 63 1012.7
20260504235215 31 97 6.4 11.3 0.00 0.00 0.00 64 1012.6
20260504234504 31 94 9.7 12.9 0.00 0.00 0.00 63 1012.8
20260504234213 31 92 4.8 11.3 0.00 0.00 0.00 64 1012.8
20260504233224 30 103 1.6 9.7 0.00 0.00 0.00 66 1012.7
20260504233109 30 102 1.6 11.3 0.00 0.00 0.00 65 1012.8
20260504232209 30 103 3.2 9.7 0.00 0.00 0.00 68 1012.7
20260504231603 30 103 4.8 11.3 0.00 0.00 0.00 68 1012.7
20260504231153 30 103 3.2 9.7 0.00 0.00 0.00 68 1012.6
20260504230131 29 103 3.2 9.7 0.00 0.00 0.00 70 1012.4
20260504230011 29 103 6.4 11.3 0.00 0.00 0.00 70 1012.5
20260504225150 29 103 4.8 9.7 0.00 0.00 0.00 72 1012.4
20260504224611 28 103 6.4 11.3 0.00 0.00 0.00 73 1012.4
20260504224152 28 103 4.8 9.7 0.00 0.00 0.00 74 1012.3
20260504223005 27 103 6.4 11.3 0.00 0.00 0.00 77 1012.2
20260504222052 27 103 3.2 8.0 0.00 0.00 0.00 79 1012.2